Terminal Aerodrome Forecast
Issued by NWS

Home | Current Version | Previous Version | Text Only | Print | Product List | Glossary Off
Versions: 1 2 3 4 5 6 7 8 9 10 11 12 13 14 15 16 17

000
FTUS42 KMHX 300300 AAA
TAFISO
TAF AMD
KISO 300347Z 3004/3024 35006KT 6SM SHRA SCT009 BKN030
      TEMPO 3004/3007 OVC009
     FM301000 03008KT P6SM SCT020 BKN030
     FM301300 01007KT P6SM FEW040
      AMD LTD TO CLD VIS AND WIND=

USA.gov is the U.S. government's official web portal to all federal, state and local government web resources and services.